Year,Month,Day,Hour,Minute,Value (Times are PST for windgust in km/hr)
2013,03,24,00,00,14.50
2013,03,24,00,01,16.10
2013,03,24,00,02,20.90
2013,03,24,00,03,17.70
2013,03,24,00,04,20.90
2013,03,24,00,05,19.30
2013,03,24,00,06,12.90
2013,03,24,00,07,12.90
2013,03,24,00,08,14.50
2013,03,24,00,09,16.10
2013,03,24,00,10,16.10
2013,03,24,00,11,17.70
2013,03,24,00,12,17.70
2013,03,24,00,13,20.90
2013,03,24,00,14,16.10
2013,03,24,00,15,17.70
2013,03,24,00,16,19.30
2013,03,24,00,17,16.10
2013,03,24,00,18,14.50
2013,03,24,00,19,16.10
2013,03,24,00,20,14.50
2013,03,24,00,21,12.90
2013,03,24,00,22,16.10
2013,03,24,00,23,16.10
2013,03,24,00,24,14.50
2013,03,24,00,25,16.10
2013,03,24,00,26,11.30
2013,03,24,00,27,14.50
2013,03,24,00,28,16.10
2013,03,24,00,29,19.30
2013,03,24,00,30,17.70
2013,03,24,00,31,20.90
2013,03,24,00,32,24.20
2013,03,24,00,33,19.30
2013,03,24,00,34,22.50
2013,03,24,00,35,19.30
2013,03,24,00,36,19.30
2013,03,24,00,37,16.10
2013,03,24,00,38,12.90
2013,03,24,00,39,17.70
2013,03,24,00,40,19.30
2013,03,24,00,41,16.10
2013,03,24,00,42,14.50
2013,03,24,00,43,20.90
2013,03,24,00,44,14.50
2013,03,24,00,45,16.10
2013,03,24,00,46,17.70
2013,03,24,00,47,14.50
2013,03,24,00,48,19.30
2013,03,24,00,49,19.30
2013,03,24,00,50,19.30
2013,03,24,00,51,16.10
2013,03,24,00,52,24.20
2013,03,24,00,53,17.70
2013,03,24,00,54,14.50
2013,03,24,00,55,12.90
2013,03,24,00,56,14.50
2013,03,24,00,57,14.50
2013,03,24,00,58,24.20
2013,03,24,00,59,17.70
2013,03,24,01,00,22.50
2013,03,24,01,01,19.30
2013,03,24,01,02,16.10
2013,03,24,01,03,24.20
2013,03,24,01,04,17.70
2013,03,24,01,05,22.50
2013,03,24,01,06,14.50
2013,03,24,01,07,25.70
2013,03,24,01,08,16.10
2013,03,24,01,09,16.10
2013,03,24,01,10,19.30
2013,03,24,01,11,12.90
2013,03,24,01,12,11.30
2013,03,24,01,13,20.90
2013,03,24,01,14,16.10
2013,03,24,01,15,19.30
2013,03,24,01,16,17.70
2013,03,24,01,17,16.10
2013,03,24,01,18,14.50
2013,03,24,01,19,24.20
2013,03,24,01,20,17.70
2013,03,24,01,21,24.20
2013,03,24,01,22,17.70
2013,03,24,01,23,19.30
2013,03,24,01,24,17.70
2013,03,24,01,25,16.10
2013,03,24,01,26,16.10
2013,03,24,01,27,22.50
2013,03,24,01,28,16.10
2013,03,24,01,29,17.70
2013,03,24,01,30,19.30
2013,03,24,01,31,16.10
2013,03,24,01,32,25.70
2013,03,24,01,33,24.20
2013,03,24,01,34,20.90
2013,03,24,01,35,16.10
2013,03,24,01,36,19.30
2013,03,24,01,37,16.10
2013,03,24,01,38,16.10
2013,03,24,01,39,16.10
2013,03,24,01,40,17.70
2013,03,24,01,41,24.20
2013,03,24,01,42,14.50
2013,03,24,01,43,16.10
2013,03,24,01,44,17.70
2013,03,24,01,45,16.10
2013,03,24,01,46,19.30
2013,03,24,01,47,19.30
2013,03,24,01,48,16.10
2013,03,24,01,49,24.20
2013,03,24,01,50,20.90
2013,03,24,01,51,16.10
2013,03,24,01,52,19.30
2013,03,24,01,53,17.70
2013,03,24,01,54,19.30
2013,03,24,01,55,17.70
2013,03,24,01,56,25.70
2013,03,24,01,57,19.30
2013,03,24,01,58,25.70
2013,03,24,01,59,12.90
2013,03,24,02,00,24.20
2013,03,24,02,01,25.70
2013,03,24,02,02,17.70
2013,03,24,02,03,20.90
2013,03,24,02,04,12.90
2013,03,24,02,05,25.70
2013,03,24,02,06,24.20
2013,03,24,02,07,17.70
2013,03,24,02,08,19.30
2013,03,24,02,09,24.20
2013,03,24,02,10,20.90
2013,03,24,02,11,20.90
2013,03,24,02,12,20.90
2013,03,24,02,13,24.20
2013,03,24,02,14,20.90
2013,03,24,02,15,22.50
2013,03,24,02,16,16.10
2013,03,24,02,17,14.50
2013,03,24,02,18,16.10
2013,03,24,02,19,20.90
2013,03,24,02,20,17.70
2013,03,24,02,21,20.90
2013,03,24,02,22,14.50
2013,03,24,02,23,17.70
2013,03,24,02,24,16.10
2013,03,24,02,25,19.30
2013,03,24,02,26,19.30
2013,03,24,02,27,24.20
2013,03,24,02,28,19.30
2013,03,24,02,29,16.10
2013,03,24,02,30,12.90
2013,03,24,02,31,14.50
2013,03,24,02,32,11.30
2013,03,24,02,33,16.10
2013,03,24,02,34,19.30
2013,03,24,02,35,17.70
2013,03,24,02,36,20.90
2013,03,24,02,37,11.30
2013,03,24,02,38,14.50
2013,03,24,02,39,14.50
2013,03,24,02,40,14.50
2013,03,24,02,41,17.70
2013,03,24,02,42,17.70
2013,03,24,02,43,14.50
2013,03,24,02,44,17.70
2013,03,24,02,45,11.30
2013,03,24,02,46,11.30
2013,03,24,02,47,22.50
2013,03,24,02,48,20.90
2013,03,24,02,49,19.30
2013,03,24,02,50,16.10
2013,03,24,02,51,19.30
2013,03,24,02,52,17.70
2013,03,24,02,53,19.30
2013,03,24,02,54,16.10
2013,03,24,02,55,16.10
2013,03,24,02,56,20.90
2013,03,24,02,57,14.50
2013,03,24,02,58,16.10
2013,03,24,02,59,16.10
2013,03,24,03,00,16.10
2013,03,24,03,01,17.70
2013,03,24,03,02,19.30
2013,03,24,03,03,14.50
2013,03,24,03,04,16.10
2013,03,24,03,05,16.10
2013,03,24,03,06,19.30
2013,03,24,03,07,14.50
2013,03,24,03,08,12.90
2013,03,24,03,09,17.70
2013,03,24,03,10,19.30
2013,03,24,03,11,17.70
2013,03,24,03,12,14.50
2013,03,24,03,13,17.70
2013,03,24,03,14,19.30
2013,03,24,03,15,16.10
2013,03,24,03,16,16.10
2013,03,24,03,17,17.70
2013,03,24,03,18,14.50
2013,03,24,03,19,12.90
2013,03,24,03,20,19.30
2013,03,24,03,21,20.90
2013,03,24,03,22,16.10
2013,03,24,03,23,12.90
2013,03,24,03,24,14.50
2013,03,24,03,25,11.30
2013,03,24,03,26,14.50
2013,03,24,03,27,12.90
2013,03,24,03,28,12.90
2013,03,24,03,29,14.50
2013,03,24,03,30,12.90
2013,03,24,03,31,12.90
2013,03,24,03,32,12.90
2013,03,24,03,33,17.70
2013,03,24,03,34,11.30
2013,03,24,03,35,14.50
2013,03,24,03,36,16.10
2013,03,24,03,37,12.90
2013,03,24,03,38,16.10
2013,03,24,03,39,11.30
2013,03,24,03,40,16.10
2013,03,24,03,41,14.50
2013,03,24,03,42,12.90
2013,03,24,03,43,14.50
2013,03,24,03,44,9.60
2013,03,24,03,45,11.30
2013,03,24,03,46,17.70
2013,03,24,03,47,12.90
2013,03,24,03,48,17.70
2013,03,24,03,49,14.50
2013,03,24,03,50,11.30
2013,03,24,03,51,14.50
2013,03,24,03,52,11.30
2013,03,24,03,53,14.50
2013,03,24,03,54,17.70
2013,03,24,03,55,16.10
2013,03,24,03,56,12.90
2013,03,24,03,57,16.10
2013,03,24,03,58,14.50
2013,03,24,03,59,17.70
2013,03,24,04,00,14.50
2013,03,24,04,01,16.10
2013,03,24,04,02,14.50
2013,03,24,04,03,9.60
2013,03,24,04,04,9.60
2013,03,24,04,05,14.50
2013,03,24,04,06,14.50
2013,03,24,04,07,11.30
2013,03,24,04,08,14.50
2013,03,24,04,09,9.60
2013,03,24,04,10,19.30
2013,03,24,04,11,16.10
2013,03,24,04,12,17.70
2013,03,24,04,13,14.50
2013,03,24,04,14,14.50
2013,03,24,04,15,11.30
2013,03,24,04,16,9.60
2013,03,24,04,17,19.30
2013,03,24,04,18,17.70
2013,03,24,04,19,19.30
2013,03,24,04,20,12.90
2013,03,24,04,21,11.30
2013,03,24,04,22,9.60
2013,03,24,04,23,9.60
2013,03,24,04,24,11.30
2013,03,24,04,25,11.30
2013,03,24,04,26,11.30
2013,03,24,04,27,12.90
2013,03,24,04,28,9.60
2013,03,24,04,29,9.60
2013,03,24,04,30,11.30
2013,03,24,04,31,11.30
2013,03,24,04,32,9.60
2013,03,24,04,33,11.30
2013,03,24,04,34,9.60
2013,03,24,04,35,14.50
2013,03,24,04,36,14.50
2013,03,24,04,37,12.90
2013,03,24,04,38,16.10
2013,03,24,04,39,16.10
2013,03,24,04,40,12.90
2013,03,24,04,41,11.30
2013,03,24,04,42,16.10
2013,03,24,04,43,9.60
2013,03,24,04,44,11.30
2013,03,24,04,45,12.90
2013,03,24,04,46,8.10
2013,03,24,04,47,17.70
2013,03,24,04,48,12.90
2013,03,24,04,49,14.50
2013,03,24,04,50,12.90
2013,03,24,04,51,12.90
2013,03,24,04,52,9.60
2013,03,24,04,53,14.50
2013,03,24,04,54,12.90
2013,03,24,04,55,9.60
2013,03,24,04,56,9.60
2013,03,24,04,57,11.30
2013,03,24,04,58,12.90
2013,03,24,04,59,16.10
2013,03,24,05,00,16.10
2013,03,24,05,01,11.30
2013,03,24,05,02,11.30
2013,03,24,05,03,9.60
2013,03,24,05,04,8.10
2013,03,24,05,05,14.50
2013,03,24,05,06,14.50
2013,03,24,05,07,8.10
2013,03,24,05,08,8.10
2013,03,24,05,09,9.60
2013,03,24,05,10,16.10
2013,03,24,05,11,11.30
2013,03,24,05,12,12.90
2013,03,24,05,13,14.50
2013,03,24,05,14,11.30
2013,03,24,05,15,9.60
2013,03,24,05,16,16.10
2013,03,24,05,17,12.90
2013,03,24,05,18,12.90
2013,03,24,05,19,11.30
2013,03,24,05,20,16.10
2013,03,24,05,21,12.90
2013,03,24,05,22,8.10
2013,03,24,05,23,12.90
2013,03,24,05,24,9.60
2013,03,24,05,25,9.60
2013,03,24,05,26,12.90
2013,03,24,05,27,9.60
2013,03,24,05,28,11.30
2013,03,24,05,29,11.30
2013,03,24,05,30,14.50
2013,03,24,05,31,9.60
2013,03,24,05,32,12.90
2013,03,24,05,33,11.30
2013,03,24,05,34,9.60
2013,03,24,05,35,9.60
2013,03,24,05,36,8.10
2013,03,24,05,37,11.30
2013,03,24,05,38,14.50
2013,03,24,05,39,9.60
2013,03,24,05,40,8.10
2013,03,24,05,41,9.60
2013,03,24,05,42,8.10
2013,03,24,05,43,8.10
2013,03,24,05,44,12.90
2013,03,24,05,45,9.60
2013,03,24,05,46,11.30
2013,03,24,05,47,11.30
2013,03,24,05,48,9.60
2013,03,24,05,49,9.60
2013,03,24,05,50,12.90
2013,03,24,05,51,11.30
2013,03,24,05,52,8.10
2013,03,24,05,53,9.60
2013,03,24,05,54,11.30
2013,03,24,05,55,9.60
2013,03,24,05,56,8.10
2013,03,24,05,57,9.60
2013,03,24,05,58,9.60
2013,03,24,05,59,9.60
2013,03,24,06,00,11.30
2013,03,24,06,01,9.60
2013,03,24,06,02,6.40
2013,03,24,06,03,9.60
2013,03,24,06,04,6.40
2013,03,24,06,05,8.10
2013,03,24,06,06,4.80
2013,03,24,06,07,3.20
2013,03,24,06,08,6.40
2013,03,24,06,09,8.10
2013,03,24,06,10,6.40
2013,03,24,06,11,4.80
2013,03,24,06,12,4.80
2013,03,24,06,13,6.40
2013,03,24,06,14,4.80
2013,03,24,06,15,6.40
2013,03,24,06,16,6.40
2013,03,24,06,17,4.80
2013,03,24,06,18,3.20
2013,03,24,06,19,8.10
2013,03,24,06,20,6.40
2013,03,24,06,21,8.10
2013,03,24,06,22,4.80
2013,03,24,06,23,8.10
2013,03,24,06,24,8.10
2013,03,24,06,25,8.10
2013,03,24,06,26,4.80
2013,03,24,06,27,6.40
2013,03,24,06,28,6.40
2013,03,24,06,29,4.80
2013,03,24,06,30,8.10
2013,03,24,06,31,4.80
2013,03,24,06,32,8.10
2013,03,24,06,33,6.40
2013,03,24,06,34,6.40
2013,03,24,06,35,3.20
2013,03,24,06,36,3.20
2013,03,24,06,37,4.80
2013,03,24,06,38,4.80
2013,03,24,06,39,6.40
2013,03,24,06,40,6.40
2013,03,24,06,41,6.40
2013,03,24,06,42,8.10
2013,03,24,06,43,6.40
2013,03,24,06,44,6.40
2013,03,24,06,45,6.40
2013,03,24,06,46,6.40
2013,03,24,06,47,6.40
2013,03,24,06,48,6.40
2013,03,24,06,49,6.40
2013,03,24,06,50,8.10
2013,03,24,06,51,6.40
2013,03,24,06,52,4.80
2013,03,24,06,53,4.80
2013,03,24,06,54,8.10
2013,03,24,06,55,6.40
2013,03,24,06,56,8.10
2013,03,24,06,57,6.40
2013,03,24,06,58,9.60
2013,03,24,06,59,8.10
2013,03,24,07,00,8.10
2013,03,24,07,01,6.40
2013,03,24,07,02,8.10
2013,03,24,07,03,8.10
2013,03,24,07,04,4.80
2013,03,24,07,05,8.10
2013,03,24,07,06,8.10
2013,03,24,07,07,8.10
2013,03,24,07,08,9.60
2013,03,24,07,09,11.30
2013,03,24,07,10,14.50
2013,03,24,07,11,14.50
2013,03,24,07,12,9.60
2013,03,24,07,13,11.30
2013,03,24,07,14,9.60
2013,03,24,07,15,11.30
2013,03,24,07,16,8.10
2013,03,24,07,17,11.30
2013,03,24,07,18,8.10
2013,03,24,07,19,6.40
2013,03,24,07,20,4.80
2013,03,24,07,21,6.40
2013,03,24,07,22,8.10
2013,03,24,07,23,4.80
2013,03,24,07,24,6.40
2013,03,24,07,25,6.40
2013,03,24,07,26,4.80
2013,03,24,07,27,8.10
2013,03,24,07,28,8.10
2013,03,24,07,29,9.60
2013,03,24,07,30,9.60
2013,03,24,07,31,8.10
2013,03,24,07,32,6.40
2013,03,24,07,33,4.80
2013,03,24,07,34,8.10
2013,03,24,07,35,8.10
2013,03,24,07,36,6.40
2013,03,24,07,37,4.80
2013,03,24,07,38,8.10
2013,03,24,07,39,6.40
2013,03,24,07,40,9.60
2013,03,24,07,41,11.30
2013,03,24,07,42,8.10
2013,03,24,07,43,11.30
2013,03,24,07,44,6.40
2013,03,24,07,45,6.40
2013,03,24,07,46,6.40
2013,03,24,07,47,6.40
2013,03,24,07,48,8.10
2013,03,24,07,49,8.10
2013,03,24,07,50,3.20
2013,03,24,07,51,3.20
2013,03,24,07,53,4.80
2013,03,24,07,54,3.20
2013,03,24,07,55,4.80
2013,03,24,07,56,4.80
2013,03,24,07,57,1.60
2013,03,24,07,58,3.20
2013,03,24,07,59,3.20
2013,03,24,08,00,1.60
2013,03,24,08,02,1.60
2013,03,24,08,06,1.60
2013,03,24,08,07,4.80
2013,03,24,08,08,3.20
2013,03,24,08,09,3.20
2013,03,24,08,16,1.60
2013,03,24,08,17,3.20
2013,03,24,08,18,4.80
2013,03,24,08,19,3.20
2013,03,24,08,20,3.20
2013,03,24,08,21,1.60
2013,03,24,08,22,3.20
2013,03,24,08,23,3.20
2013,03,24,08,24,3.20
2013,03,24,08,25,3.20
2013,03,24,08,26,4.80
2013,03,24,08,27,4.80
2013,03,24,08,28,8.10
2013,03,24,08,29,3.20
2013,03,24,08,30,3.20
2013,03,24,08,31,4.80
2013,03,24,08,32,3.20
2013,03,24,08,33,3.20
2013,03,24,08,34,4.80
2013,03,24,08,35,3.20
2013,03,24,08,36,4.80
2013,03,24,08,37,4.80
2013,03,24,08,38,6.40
2013,03,24,08,39,6.40
2013,03,24,08,40,3.20
2013,03,24,08,41,4.80
2013,03,24,08,42,4.80
2013,03,24,08,43,4.80
2013,03,24,08,44,3.20
2013,03,24,08,45,6.40
2013,03,24,08,46,4.80
2013,03,24,08,47,4.80
2013,03,24,08,48,8.10
2013,03,24,08,49,6.40
2013,03,24,08,50,6.40
2013,03,24,08,51,6.40
2013,03,24,08,52,8.10
2013,03,24,08,53,8.10
2013,03,24,08,54,4.80
2013,03,24,08,55,4.80
2013,03,24,08,56,4.80
2013,03,24,08,57,3.20
2013,03,24,08,58,4.80
2013,03,24,08,59,3.20
2013,03,24,09,00,4.80
2013,03,24,09,01,3.20
2013,03,24,09,02,4.80
2013,03,24,09,03,4.80
2013,03,24,09,04,6.40
2013,03,24,09,05,8.10
2013,03,24,09,06,6.40
2013,03,24,09,07,6.40
2013,03,24,09,08,6.40
2013,03,24,09,09,6.40
2013,03,24,09,10,6.40
2013,03,24,09,11,6.40
2013,03,24,09,12,3.20
2013,03,24,09,13,4.80
2013,03,24,09,14,4.80
2013,03,24,09,15,4.80
2013,03,24,09,16,6.40
2013,03,24,09,17,8.10
2013,03,24,09,18,8.10
2013,03,24,09,19,6.40
2013,03,24,09,20,6.40
2013,03,24,09,21,6.40
2013,03,24,09,22,6.40
2013,03,24,09,23,6.40
2013,03,24,09,24,6.40
2013,03,24,09,25,4.80
2013,03,24,09,26,4.80
2013,03,24,09,27,4.80
2013,03,24,09,28,4.80
2013,03,24,09,29,4.80
2013,03,24,09,30,6.40
2013,03,24,09,31,4.80
2013,03,24,09,32,6.40
2013,03,24,09,33,3.20
2013,03,24,09,34,4.80
2013,03,24,09,35,3.20
2013,03,24,09,36,3.20
2013,03,24,09,37,4.80
2013,03,24,09,38,3.20
2013,03,24,09,39,4.80
2013,03,24,09,40,3.20
2013,03,24,09,41,4.80
2013,03,24,09,42,4.80
2013,03,24,09,43,4.80
2013,03,24,09,44,4.80
2013,03,24,09,45,6.40
2013,03,24,09,46,6.40
2013,03,24,09,47,4.80
2013,03,24,09,48,3.20
2013,03,24,09,49,3.20
2013,03,24,09,50,4.80
2013,03,24,09,51,3.20
2013,03,24,09,52,3.20
2013,03,24,09,53,4.80
2013,03,24,09,54,3.20
2013,03,24,09,55,3.20
2013,03,24,09,56,4.80
2013,03,24,09,57,3.20
2013,03,24,09,58,4.80
2013,03,24,09,59,4.80
2013,03,24,10,00,4.80
2013,03,24,10,01,3.20
2013,03,24,10,02,4.80
2013,03,24,10,03,3.20
2013,03,24,10,04,4.80
2013,03,24,10,05,4.80
2013,03,24,10,06,3.20
2013,03,24,10,07,4.80
2013,03,24,10,08,4.80
2013,03,24,10,09,4.80
2013,03,24,10,10,3.20
2013,03,24,10,11,4.80
2013,03,24,10,12,3.20
2013,03,24,10,13,3.20
2013,03,24,10,14,3.20
2013,03,24,10,15,3.20
2013,03,24,10,16,3.20
2013,03,24,10,17,3.20
2013,03,24,10,18,3.20
2013,03,24,10,19,3.20
2013,03,24,10,20,3.20
2013,03,24,10,21,3.20
2013,03,24,10,23,1.60
2013,03,24,10,24,3.20
2013,03,24,10,25,1.60
2013,03,24,10,26,1.60
2013,03,24,10,27,1.60
2013,03,24,10,28,3.20
2013,03,24,10,29,1.60
2013,03,24,10,31,1.60
2013,03,24,10,37,1.60
2013,03,24,10,38,3.20
2013,03,24,10,39,3.20
2013,03,24,10,40,1.60
2013,03,24,10,42,3.20
2013,03,24,10,43,3.20
2013,03,24,10,44,1.60
2013,03,24,10,45,3.20
2013,03,24,10,47,1.60
2013,03,24,10,48,3.20
2013,03,24,10,49,3.20
2013,03,24,10,51,3.20
2013,03,24,10,52,3.20
2013,03,24,10,53,3.20
2013,03,24,10,54,3.20
2013,03,24,10,55,4.80
2013,03,24,10,56,4.80
2013,03,24,10,57,4.80
2013,03,24,10,58,4.80
2013,03,24,10,59,3.20
2013,03,24,11,00,1.60
2013,03,24,11,01,3.20
2013,03,24,11,02,4.80
2013,03,24,11,03,3.20
2013,03,24,11,04,3.20
2013,03,24,11,05,4.80
2013,03,24,11,06,4.80
2013,03,24,11,07,3.20
2013,03,24,11,08,4.80
2013,03,24,11,09,3.20
2013,03,24,11,10,4.80
2013,03,24,11,11,3.20
2013,03,24,11,12,4.80
2013,03,24,11,13,4.80
2013,03,24,11,14,4.80
2013,03,24,11,15,4.80
2013,03,24,11,16,4.80
2013,03,24,11,17,3.20
2013,03,24,11,18,4.80
2013,03,24,11,19,3.20
2013,03,24,11,20,4.80
2013,03,24,11,21,8.10
2013,03,24,11,22,6.40
2013,03,24,11,23,6.40
2013,03,24,11,24,4.80
2013,03,24,11,25,4.80
2013,03,24,11,26,3.20
2013,03,24,11,27,4.80
2013,03,24,11,28,3.20
2013,03,24,11,29,4.80
2013,03,24,11,30,4.80
2013,03,24,11,31,4.80
2013,03,24,11,32,4.80
2013,03,24,11,33,3.20
2013,03,24,11,34,4.80
2013,03,24,11,35,4.80
2013,03,24,11,36,3.20
2013,03,24,11,37,4.80
2013,03,24,11,38,4.80
2013,03,24,11,39,6.40
2013,03,24,11,40,6.40
2013,03,24,11,41,3.20
2013,03,24,11,42,4.80
2013,03,24,11,43,6.40
2013,03,24,11,44,3.20
2013,03,24,11,45,4.80
2013,03,24,11,46,6.40
2013,03,24,11,47,4.80
2013,03,24,11,48,3.20
2013,03,24,11,49,4.80
2013,03,24,11,50,4.80
2013,03,24,11,51,4.80
2013,03,24,11,52,4.80
2013,03,24,11,53,4.80
2013,03,24,11,54,4.80
2013,03,24,11,55,3.20
2013,03,24,11,56,4.80
2013,03,24,11,57,6.40
2013,03,24,11,58,3.20
2013,03,24,11,59,4.80
2013,03,24,12,00,4.80
2013,03,24,12,01,4.80
2013,03,24,12,02,4.80
2013,03,24,12,03,6.40
2013,03,24,12,04,8.10
2013,03,24,12,05,8.10
2013,03,24,12,06,6.40
2013,03,24,12,07,6.40
2013,03,24,12,08,4.80
2013,03,24,12,09,6.40
2013,03,24,12,10,4.80
2013,03,24,12,11,4.80
2013,03,24,12,12,4.80
2013,03,24,12,13,8.10
2013,03,24,12,14,6.40
2013,03,24,12,15,6.40
2013,03,24,12,16,8.10
2013,03,24,12,17,6.40
2013,03,24,12,18,4.80
2013,03,24,12,19,4.80
2013,03,24,12,20,8.10
2013,03,24,12,21,6.40
2013,03,24,12,22,6.40
2013,03,24,12,23,6.40
2013,03,24,12,24,8.10
2013,03,24,12,25,4.80
2013,03,24,12,26,6.40
2013,03,24,12,27,6.40
2013,03,24,12,28,4.80
2013,03,24,12,29,6.40
2013,03,24,12,30,6.40
2013,03,24,12,31,6.40
2013,03,24,12,32,4.80
2013,03,24,12,33,4.80
2013,03,24,12,34,4.80
2013,03,24,12,35,4.80
2013,03,24,12,36,8.10
2013,03,24,12,37,4.80
2013,03,24,12,38,8.10
2013,03,24,12,39,8.10
2013,03,24,12,40,6.40
2013,03,24,12,41,6.40
2013,03,24,12,42,3.20
2013,03,24,12,43,4.80
2013,03,24,12,44,4.80
2013,03,24,12,45,3.20
2013,03,24,12,46,6.40
2013,03,24,12,47,4.80
2013,03,24,12,48,3.20
2013,03,24,12,49,3.20
2013,03,24,12,50,6.40
2013,03,24,12,51,4.80
2013,03,24,12,52,6.40
2013,03,24,12,53,3.20
2013,03,24,12,54,6.40
2013,03,24,12,55,3.20
2013,03,24,12,56,3.20
2013,03,24,12,57,4.80
2013,03,24,12,58,4.80
2013,03,24,12,59,3.20
2013,03,24,13,00,1.60
2013,03,24,13,01,3.20
2013,03,24,13,02,1.60
2013,03,24,13,03,3.20
2013,03,24,13,04,4.80
2013,03,24,13,05,3.20
2013,03,24,13,06,1.60
2013,03,24,13,11,1.60
2013,03,24,13,12,3.20
2013,03,24,13,13,3.20
2013,03,24,13,14,4.80
2013,03,24,13,15,3.20
2013,03,24,13,16,4.80
2013,03,24,13,17,1.60
2013,03,24,13,32,1.60
2013,03,24,13,33,3.20
2013,03,24,13,34,1.60
2013,03,24,13,35,3.20
2013,03,24,13,36,3.20
2013,03,24,13,37,1.60
2013,03,24,13,54,3.20
2013,03,24,13,55,3.20
2013,03,24,13,56,3.20
2013,03,24,13,57,4.80
2013,03,24,13,58,3.20
2013,03,24,14,02,3.20
2013,03,24,14,03,3.20
2013,03,24,14,04,1.60
2013,03,24,14,05,1.60
2013,03,24,14,07,3.20
2013,03,24,14,08,3.20
2013,03,24,14,09,1.60
2013,03,24,14,10,3.20
2013,03,24,14,11,1.60
2013,03,24,14,12,3.20
2013,03,24,14,13,3.20
2013,03,24,14,14,1.60
2013,03,24,14,16,4.80
2013,03,24,14,17,3.20
2013,03,24,14,18,4.80
2013,03,24,14,19,4.80
2013,03,24,14,20,3.20
2013,03,24,14,36,1.60
2013,03,24,14,37,1.60
2013,03,24,14,39,3.20
2013,03,24,14,40,3.20
2013,03,24,14,41,3.20
2013,03,24,14,42,3.20
2013,03,24,14,43,3.20
2013,03,24,14,44,1.60
2013,03,24,14,45,1.60
2013,03,24,14,46,1.60
2013,03,24,14,49,3.20
2013,03,24,14,50,1.60
2013,03,24,14,53,3.20
2013,03,24,14,54,3.20
2013,03,24,14,55,3.20
2013,03,24,14,56,3.20
2013,03,24,14,57,3.20
2013,03,24,14,58,1.60
2013,03,24,14,59,3.20
2013,03,24,15,00,1.60
2013,03,24,15,01,3.20
2013,03,24,15,06,1.60
2013,03,24,15,20,4.80
2013,03,24,15,21,1.60
2013,03,24,15,26,3.20
2013,03,24,15,32,3.20
2013,03,24,15,33,3.20
2013,03,24,15,53,4.80
2013,03,24,15,54,3.20
2013,03,24,15,56,3.20
2013,03,24,16,00,3.20
2013,03,24,16,19,1.60
2013,03,24,16,20,3.20
2013,03,24,16,21,4.80
2013,03,24,16,22,1.60
2013,03,24,16,27,3.20
2013,03,24,16,28,3.20
2013,03,24,16,29,3.20
2013,03,24,16,30,1.60
2013,03,24,16,31,6.40
2013,03,24,16,32,6.40
2013,03,24,16,33,4.80
2013,03,24,16,34,8.10
2013,03,24,16,35,3.20
2013,03,24,16,36,3.20
2013,03,24,16,37,12.90
2013,03,24,16,38,4.80
2013,03,24,16,39,3.20
2013,03,24,16,40,3.20
2013,03,24,16,41,1.60
2013,03,24,16,42,12.90
2013,03,24,16,43,12.90
2013,03,24,16,44,9.60
2013,03,24,16,45,12.90
2013,03,24,16,46,11.30
2013,03,24,16,47,11.30
2013,03,24,16,48,11.30
2013,03,24,16,49,12.90
2013,03,24,16,50,17.70
2013,03,24,16,51,19.30
2013,03,24,16,52,17.70
2013,03,24,16,53,12.90
2013,03,24,16,54,14.50
2013,03,24,16,55,17.70
2013,03,24,16,56,14.50
2013,03,24,16,57,12.90
2013,03,24,16,58,11.30
2013,03,24,16,59,19.30
2013,03,24,17,00,14.50
2013,03,24,17,01,16.10
2013,03,24,17,02,11.30
2013,03,24,17,03,17.70
2013,03,24,17,04,9.60
2013,03,24,17,05,22.50
2013,03,24,17,06,14.50
2013,03,24,17,07,12.90
2013,03,24,17,08,12.90
2013,03,24,17,09,14.50
2013,03,24,17,10,12.90
2013,03,24,17,11,14.50
2013,03,24,17,12,16.10
2013,03,24,17,13,12.90
2013,03,24,17,14,9.60
2013,03,24,17,15,8.10
2013,03,24,17,16,8.10
2013,03,24,17,17,8.10
2013,03,24,17,18,9.60
2013,03,24,17,19,8.10
2013,03,24,17,20,8.10
2013,03,24,17,21,11.30
2013,03,24,17,22,9.60
2013,03,24,17,23,11.30
2013,03,24,17,24,25.70
2013,03,24,17,25,9.60
2013,03,24,17,26,11.30
2013,03,24,17,27,12.90
2013,03,24,17,28,14.50
2013,03,24,17,29,11.30
2013,03,24,17,30,14.50
2013,03,24,17,31,8.10
2013,03,24,17,32,11.30
2013,03,24,17,33,12.90
2013,03,24,17,34,11.30
2013,03,24,17,35,16.10
2013,03,24,17,36,12.90
2013,03,24,17,37,16.10
2013,03,24,17,38,14.50
2013,03,24,17,39,12.90
2013,03,24,17,40,6.40
2013,03,24,17,41,20.90
2013,03,24,17,42,8.10
2013,03,24,17,43,19.30
2013,03,24,17,44,25.70
2013,03,24,17,45,24.20
2013,03,24,17,46,6.40
2013,03,24,17,47,20.90
2013,03,24,17,48,12.90
2013,03,24,17,49,14.50
2013,03,24,17,50,6.40
2013,03,24,17,51,6.40
2013,03,24,17,52,11.30
2013,03,24,17,53,14.50
2013,03,24,17,54,6.40
2013,03,24,17,55,11.30
2013,03,24,17,56,16.10
2013,03,24,17,57,12.90
2013,03,24,17,58,19.30
2013,03,24,17,59,9.60
2013,03,24,18,00,27.40
2013,03,24,18,01,12.90
2013,03,24,18,02,16.10
2013,03,24,18,03,12.90
2013,03,24,18,04,4.80
2013,03,24,18,05,14.50
2013,03,24,18,06,19.30
2013,03,24,18,07,9.60
2013,03,24,18,08,11.30
2013,03,24,18,09,11.30
2013,03,24,18,10,16.10
2013,03,24,18,11,11.30
2013,03,24,18,12,11.30
2013,03,24,18,13,12.90
2013,03,24,18,14,11.30
2013,03,24,18,15,9.60
2013,03,24,18,16,8.10
2013,03,24,18,17,9.60
2013,03,24,18,18,11.30
2013,03,24,18,19,6.40
2013,03,24,18,20,14.50
2013,03,24,18,21,11.30
2013,03,24,18,22,8.10
2013,03,24,18,23,8.10
2013,03,24,18,24,1.60
2013,03,24,18,25,11.30
2013,03,24,18,26,8.10
2013,03,24,18,27,11.30
2013,03,24,18,28,8.10
2013,03,24,18,29,6.40
2013,03,24,18,30,11.30
2013,03,24,18,31,11.30
2013,03,24,18,32,11.30
2013,03,24,18,33,9.60
2013,03,24,18,34,11.30
2013,03,24,18,35,9.60
2013,03,24,18,36,9.60
2013,03,24,18,37,8.10
2013,03,24,18,38,8.10
2013,03,24,18,39,6.40
2013,03,24,18,40,8.10
2013,03,24,18,41,12.90
2013,03,24,18,42,16.10
2013,03,24,18,43,11.30
2013,03,24,18,44,6.40
2013,03,24,18,45,6.40
2013,03,24,18,46,4.80
2013,03,24,18,47,1.60
2013,03,24,18,48,4.80
2013,03,24,18,49,6.40
2013,03,24,18,50,6.40
2013,03,24,18,51,4.80
2013,03,24,18,52,3.20
2013,03,24,18,53,6.40
2013,03,24,18,54,4.80
2013,03,24,18,55,3.20
2013,03,24,18,56,1.60
2013,03,24,18,57,4.80
2013,03,24,18,58,6.40
2013,03,24,18,59,3.20
2013,03,24,19,00,3.20
2013,03,24,19,05,1.60
2013,03,24,19,06,4.80
2013,03,24,19,07,4.80
2013,03,24,19,08,3.20
2013,03,24,19,09,1.60
2013,03,24,19,11,3.20
2013,03,24,19,12,3.20
2013,03,24,19,13,1.60
2013,03,24,19,14,3.20
2013,03,24,19,15,3.20
2013,03,24,19,16,1.60
2013,03,24,19,17,1.60
2013,03,24,19,18,4.80
2013,03,24,19,19,8.10
2013,03,24,19,20,3.20
2013,03,24,19,21,3.20
2013,03,24,19,22,3.20
2013,03,24,19,23,3.20
2013,03,24,19,24,1.60
2013,03,24,19,25,4.80
2013,03,24,19,26,3.20
2013,03,24,19,27,1.60
2013,03,24,19,29,4.80
2013,03,24,19,30,1.60
2013,03,24,19,39,1.60
2013,03,24,19,40,4.80
2013,03,24,19,41,8.10
2013,03,24,19,42,4.80
2013,03,24,19,43,6.40
2013,03,24,19,44,1.60
2013,03,24,19,46,4.80
2013,03,24,19,47,1.60
2013,03,24,19,49,4.80
2013,03,24,19,50,4.80
2013,03,24,19,51,3.20
2013,03,24,19,57,3.20
2013,03,24,19,58,1.60
2013,03,24,20,03,4.80
2013,03,24,20,07,3.20
2013,03,24,20,08,3.20
2013,03,24,20,09,3.20
2013,03,24,20,14,3.20
2013,03,24,20,15,3.20
2013,03,24,20,16,3.20
2013,03,24,20,18,1.60
2013,03,24,20,19,4.80
2013,03,24,20,20,3.20
2013,03,24,20,27,3.20
2013,03,24,20,28,1.60
2013,03,24,20,32,3.20
2013,03,24,20,33,3.20
2013,03,24,20,34,1.60
2013,03,24,20,41,4.80
2013,03,24,20,42,3.20
2013,03,24,20,44,1.60
2013,03,24,20,45,3.20
2013,03,24,20,47,3.20
2013,03,24,20,48,1.60
2013,03,24,20,49,4.80
2013,03,24,20,50,4.80
2013,03,24,20,51,1.60
2013,03,24,20,55,1.60
2013,03,24,20,56,3.20
2013,03,24,20,57,3.20
2013,03,24,21,00,3.20
2013,03,24,21,01,3.20
2013,03,24,21,02,3.20
2013,03,24,21,03,3.20
2013,03,24,21,05,6.40
2013,03,24,21,06,3.20
2013,03,24,21,12,3.20
2013,03,24,21,13,1.60
2013,03,24,21,17,3.20
2013,03,24,21,18,3.20
2013,03,24,21,19,4.80
2013,03,24,21,20,3.20
2013,03,24,21,42,1.60
2013,03,24,21,56,3.20
2013,03,24,21,57,1.60